User: anonymous   Login
Location: Unspecified
(0.0000°N, 0.0000°E)
Time: 01:39:11
(UTC+00:00)
Language:

deb r/b Ablestar - Orbit

View from above orbital plane
View from above orbital plane
View from above satellite
View from above satellite

Ground track
Ground track

The orbit data is extracted from the following two-line orbital elements,

1 00335U 61015DM  18172.74221381  .00000533  00000-0  30341-3 0  9996
2 00335  66.8432  18.7365 0039785 179.3696 180.7454 14.16991221913845
Epoch (UTC): 21 June 2018 17:48:47
Eccentricity: 0.0039785
inclination: 66.8432°
perigee height: 807 km
apogee height: 864 km
right ascension of ascending node: 18.7365°
argument of perigee: 179.3696°
revolutions per day: 14.16991221
mean anomaly at epoch: 180.7454°
orbit number at epoch: 91384

The dashed part of the orbit path shows where the satellite is in the earth's shadow,  

DLR